Regional Weather Roundup
Issued by NWS

Current Version | Previous Version | Text Only | Print | Product List | Glossary On
Versions: 1 2 3 4 5 6 7 8 9 10 11 12 13 14 15 16 17 18 19 20 21 22 23 24 25 26 27 28 29 30 31 32 33 34 35 36 37 38 39 40 41 42 43 44 45 46 47 48 49 50
000
ASUS44 KFWD 241115
RWRTX
NORTH TEXAS HOURLY WEATHER ROUNDUP
NATIONAL WEATHER SERVICE FORT WORTH TX
500 AM CST WED JAN 24 2018

NOTE: "FAIR" INDICATES FEW OR NO CLOUDS BELOW 12,000 FEET WITH NO
SIGNIFICANT WEATHER AND/OR OBSTRUCTIONS TO VISIBILITY.

TXZ118-119-241200-
DALLAS/FORT WORTH METROPLEX

CITY           SKY/WX    TMP DP  RH WIND       PRES   REMARKS
DFW AIRPORT    FAIR      35  21  56 N3        30.39R
DALLAS LOVE    FAIR      34  26  72 CALM      30.42R
FTW MEACHAM    FAIR      37  21  52 NW3       30.41R
DAL-EXECUTIVE  FAIR      35  22  58 NW5       30.40R WCI  31
FTW-ALLIANCE   FAIR      25  19  78 CALM      30.41R
FTW-NAS-JRB    FAIR      32  24  72 W3        30.42R
FTW-SPINKS     FAIR      25  20  82 CALM      30.43R
ARLINGTON      FAIR      25  20  81 CALM      30.42R
GRAND PRAIRIE  FAIR      35  22  59 CALM      30.43R
MESQUITE       FAIR      30  25  82 CALM      30.42R
LANCASTER      FAIR      31  22  71 CALM      30.43R
$$

TXZ091>094-102>105-117-120-121-131>134-241200-
NORTH CENTRAL TEXAS

CITY           SKY/WX    TMP DP  RH WIND       PRES   REMARKS
SHRMAN/DENISON FAIR      29  25  84 CALM      30.42R
GAINESVILLE    FAIR      27  19  69 CALM      30.43R
BOWIE          FAIR      31  18  58 NW5       30.41R WCI  26
BRIDGEPORT     FAIR      26  18  69 CALM      30.43S
DENTON         FAIR      30  19  63 W5        30.41R WCI  25
MCKINNEY       FAIR      30  24  78 CALM      30.41R
BONHAM         FAIR      33  23  67 W3        30.41R
GREENVILLE     FAIR      30  25  80 CALM      30.42R
ROCKWALL       FAIR      36  31  83 CALM      30.42R
TERRELL        FAIR      29  24  82 CALM      30.42R
WAXAHACHIE     FAIR      33  23  67 W3        30.42S
CLEBURNE       FAIR      34  16  47 NW6       30.42R WCI  29
GRANBURY       FAIR      24  19  80 CALM      30.44R
$$

TXZ083>090-098>101-113>116-127>130-139>142-154-155-241200-
WESTERN NORTH TEXAS

CITY           SKY/WX    TMP DP  RH WIND       PRES   REMARKS
WICHITA FALLS  FAIR      29  14  53 NW5       30.40S WCI  24
WF-KICKAPOO    FAIR      31  18  57 W5        30.44R WCI  27
VERNON         FAIR      29   7  38 NW7       30.42S WCI  22
ABILENE        FAIR      29  16  58 CALM      30.41R
ABILENE-DYESS  FAIR      22   9  57 CALM      30.41R
GRAHAM           N/A     22  15  74 CALM      30.41S
BRECKENRIDGE   FAIR      25  14  64 CALM      30.42R
CISCO          FAIR      41  10  28 CALM      30.40S
EASTLAND       FAIR      18  10  73 CALM      30.41R
RANGER         FAIR      30  14  51 CALM      30.41R
MINERAL WELLS  FAIR      26  14  60 NW3       30.40R
STEPHENVILLE   FAIR      29  18  64 NW3       30.43R
COMANCHE       FAIR      39  15  37 CALM      30.41S
BROWNWOOD      FAIR      23  10  58 CALM      30.42S
COLEMAN        FAIR      29  14  52 W8        30.41S WCI  22
$$

TXZ143>147-156>162-174-175-241200-
CENTRAL TEXAS

CITY           SKY/WX    TMP DP  RH WIND       PRES   REMARKS
WACO           FAIR      25  19  78 SW3       30.41S
WACO-MCGREGOR  FAIR      25  18  74 CALM      30.41S
HILLSBORO      FAIR      27  19  70 CALM      30.41R
CORSICANA      FAIR      36  25  64 N6        30.42R WCI  31
MEXIA          FAIR      38  19  45 CALM      30.40R
HEARNE         FAIR      27  25  93 CALM      30.41S
CAMERON        FAIR      32  23  68 NW5       30.40S WCI  28
TEMPLE         FAIR      25  21  85 N7        30.41S WCI  17
KILLEEN        FAIR      31  18  58 N9        30.38S WCI  23
KILLEEN-SKYLRK FAIR      33  19  56 NW6       30.41R WCI  28
FORT HOOD      FAIR      34  19  54 NW5       30.36S WCI  30
GATESVILLE     FAIR      27  18  69 CALM      30.43R
HAMILTON       FAIR      32  18  55 NW8       30.41R WCI  25
LAMPASAS       FAIR      30  17  58 CALM      30.39S
$$

TXZ095>097-106>112-122>126-135>138-148>153-164>167-241200-
EAST TEXAS

CITY           SKY/WX    TMP DP  RH WIND       PRES   REMARKS
PARIS          FAIR      36  20  52 NW6       30.40R WCI  31
SULPHUR SPRNGS FAIR      34  24  65 SW5       30.43R WCI  30
MOUNT PLEASANT FAIR      27  26  95 CALM      30.43R
GILMER         FAIR      30  25  81 CALM      30.41S
MINEOLA        FAIR      27  25  93 CALM      30.41S
TYLER          FAIR      32  25  75 CALM      30.40R
LONGVIEW       FAIR      32  26  78 NW3       30.40R
MARSHALL       FAIR      28  26  91 MISG      30.42S
ATHENS         FAIR      28  25  86 CALM      30.40S
PALESTINE      FAIR      29  26  89 CALM      30.41S
JACKSONVILLE   FAIR      42  23  46 N5        30.40S WCI  39
CENTER         FAIR      29  25  85 CALM      30.41R
NACOGDOCHES    FAIR      28  25  88 N3        30.41R
LUFKIN         FAIR      28  26  92 CALM      30.40R
$$

SUPPLEMENTAL OBSERVATIONS (NWS FORT WORTH AREA)

CITY           SKY/WX    TMP DP  RH WIND       PRES   REMARKS
DENISON DAM      N/A     39  32  75 CALM        N/A
CADDO GRASSLND   N/A     30  30 100 S2          N/A
PAT MAYSE LAKE   N/A     36  23  60 W3          N/A
GREENVILLE       N/A     30  27  86 SW2         N/A
CEDAR HILL       N/A     34  19  55 CALM        N/A
LBJ GRASSLAND    N/A     34  16  47 N3          N/A
POSSUM KINGDOM   N/A     32  16  51 SW7         N/A  WCI  26
GRANBURY         N/A     25  19  80 S1          N/A
COMANCHE         N/A     36  14  41 NW5         N/A  WCI  32
MCGREGOR         N/A     28  19  69 W1          N/A
TEMPLE           N/A     34  19  55 NW8         N/A  WCI  27
LAKE LIMESTONE   N/A     34  25  69 N6          N/A  WCI  29
ATHENS           N/A     32  28  86 CALM        N/A
$$

SUPPLEMENTAL OBSERVATIONS (NWS NORMAN AREA)

CITY           SKY/WX    TMP DP  RH WIND       PRES   REMARKS
GOODLETT         N/A     29  12  47 W7        30.42R WCI  22
ODELL            N/A     22  11  60 W6        30.43S WCI  15
CROWELL          N/A     34  11  38 NW10      30.43S WCI  26
KNOX CITY        N/A     21   6  53 SW5       30.43S WCI  14
SEYMOUR          N/A     21  10  61 S2        30.44R
MILLERS CREEK    N/A     27  18  69 SW6         N/A  WCI  20
$$

SUPPLEMENTAL OBSERVATIONS (NWS SAN ANGELO AREA)

CITY           SKY/WX    TMP DP  RH WIND       PRES   REMARKS
WEINERT          N/A     28   7  41 W3        30.43S
HASKELL          N/A     25   4  41 NW7       30.43R WCI  17
THROCKMORTON     N/A     30  20  68 W5        30.43S WCI  25
STAMFORD         N/A     22   5  47 SW7       30.44R WCI  14
CLYDE            N/A     35  11  37 SE6       30.42R WCI  30
HAMBY            N/A     21  12  68 E2          N/A
IVIE RESERVOIR   N/A     32  27  80 CALM        N/A
COLORADO BEND    N/A     28  14  54 S1          N/A
$$

SUPPLEMENTAL OBSERVATIONS (NWS SHREVEPORT AREA)

CITY           SKY/WX    TMP DP  RH WIND       PRES   REMARKS
CLARKSVILLE      N/A     36  19  51 NW2         N/A
TEXARKANA        N/A     27  25  93 CALM        N/A
LINDEN           N/A     30  27  86 CALM        N/A
CADDO LAKE       N/A     25  21  86 CALM        N/A
GILMER           N/A     28  28 100 CALM        N/A
HENDERSON        N/A     30  27  86 CALM        N/A
LUFKIN           N/A     30  28  93 MISG        N/A
N SABINE NF      N/A     28  27  93 MISG        N/A
S SABINE NF      N/A     32  32 100 CALM        N/A
$$

SUPPLEMENTAL OBSERVATIONS ARE A COLLECTION OF AUTOMATED INSTRUMENTS
THAT ARE MAINTAINED BY A VARIETY OF FEDERAL AND STATE AGENCIES.
CERTAIN ELEMENTS...SUCH AS HUMIDITY VALUES AND SUSTAINED WIND
SPEEDS...MAY BE APPROXIMATED.





USA.gov is the U.S. government's official web portal to all federal, state and local government web resources and services.